TITAN 3C TRANSTAGE DEB, 3494

Orbit data source: Space-Track

TITAN 3C TRANSTAGE DEB, 3494 is space debris in LEO originally from a launch on Fri, 15 Oct 1965 UTC launched from the Air Force Eastern Test Range (AFETR). Debris objects in space refer to the collection of defunct objects orbiting the Earth. Examples of debris include non-operational satellites, rocket bodies, and fragments generated from explosions, collisions, or faulty payload assembly.

Loading next visibility...
Identifier
3494, 1965-082QQ
Orbit
LEO
Country
Flag of USUS
Related business
Manufacturer
Unknown
Mission
Spacecraft
Bus & Motor
Unknown
Mass
Unknown
Launch date (UTC)
1965-10-15 (61 years ago)
Launch vehicle
Unknown
Launch site
Air Force Eastern Test Range (AFETR)
Object type
Payload
Rocket body
Debris
Shape & HBR
Unknown shape, 0.1 m
Radar Cross Section
Small (<0.1 m²)

Expand to show TLE details & history
Last TLE update: 1 day ago

TLE from 1 day ago
0 TITAN 3C TRANSTAGE DEB
1  3494U 65082QQ  26144.05420449  .00000435  00000-0  76214-4 0  9992
2  3494  31.8915 273.7442 0027275 262.8767  96.8772 14.62049063201916
Epoch: 2026-05-24T01:18Z
TLE epoch observation values (Epoch: 2026-05-24T01:18:03.267Z)
Latitude
-0.00002°
Longitude
12.5687°
Altitude
687.551 km
Speed
7.514 km/s
True Right ascension
18h 14m 58s
True Declination
0° 00' 00"
Sunlit
Object was in full shadow at epoch
Visualization orbit readout
Latitude
Unknown
Longitude
Unknown
Altitude
Unknown
Speed
Unknown
Apparent Right ascension
Unknown
Apparent Declination
Unknown
Sunlit
N/A
Visualization observer readout
Local Sidereal Time
10:30:40
Azimuth
Unknown
Elevation
Unknown
Doppler factor
Unknown
Orbital elements
Apogee altitude
709.474 km
Perigee altitude
670.916 km
Semi-major axis
7,068.332 km
Eccentricity
0.00273
Inclination
31.8915°
RAAN
273.7442°
Arg. of periapsis
262.8767°
True anomaly
97.18737°
Mean anomaly
96.8772°
Eccentric anomaly
97.0323°
Mean motion
3.65231 °/min
Orbital period
98.57 mins
BSTAR
0.000076214

Documentation

Showing up to 5 results
|